Regional Weather Roundup
Issued by NWS Little Rock, AR

Home | Current Version | Previous Version | Text Only | Print | Product List | Glossary Off
Versions: 1 2 3 4 5 6 7 8 9 10 11 12 13 14 15 16 17 18 19 20 21 22 23 24 25 26 27 28 29 30 31

000
ASUS44 KLZK 170612
RWRLZK

WEATHER ROUNDUP FOR ARKANSAS
NATIONAL WEATHER SERVICE LITTLE ROCK AR
100 AM CDT THU AUG 17 2017

NOTE: "FAIR" INDICATES FEW OR NO CLOUDS BELOW 12,000 FEET WITH NO
SIGNIFICANT WEATHER AND/OR OBSTRUCTIONS TO VISIBILITY.

ARZ001-003-010-029-170700-
NORTHWEST ARKANSAS

CITY           SKY/WX    TMP DP  RH WIND       PRES   REMARKS
FAYETTEVILLE   RAIN      67  67 100 CALM      30.00F FOG
6HR MIN TEMP:  67; 6HR MAX TEMP:  81; 6HR PCP:  0.22;

FORT SMITH     CLOUDY    80  77  90 E6        29.90F HX  87
6HR MIN TEMP:  80; 6HR MAX TEMP:  88;

HARRISON       RAIN      67  66  97 NW7       30.01R FOG
6HR MIN TEMP:  67; 6HR MAX TEMP:  81; 6HR PCP: TRACE;

BENTONVILLE    CLOUDY    66  64  94 SE8       29.99F
6HR MIN TEMP:  66; 6HR MAX TEMP:  81; 6HR PCP:  0.37;

ROGERS         RAIN      66  66 100 SE6       29.99F FOG
6HR MIN TEMP:  66; 6HR MAX TEMP:  81;

SILOAM SPGS    CLOUDY    68  64  88 NW8       29.99R
6HR MIN TEMP:  68; 6HR MAX TEMP:  81; 6HR PCP:  0.59;

HIGHFILL       LGT RAIN  68  68 100 E5        29.99F
6HR MIN TEMP:  68; 6HR MAX TEMP:  80; 6HR PCP:  0.47;

$$

ARZ004-005-016-170700-
NORTH CENTRAL ARKANSAS

CITY           SKY/WX    TMP DP  RH WIND       PRES   REMARKS
BATESVILLE     CLEAR     81  73  78 S6        29.95F HX  85
6HR MIN TEMP:  81; 6HR MAX TEMP:  88;

FLIPPIN        CLOUDY    72  63  73 NW15G23   29.96R
6HR MIN TEMP:  72; 6HR MAX TEMP:  84; 6HR PCP:  0.01;

MTN HOME       LGT RAIN  69  69 100 VRB6      29.98R
6HR MIN TEMP:  69; 6HR MAX TEMP:  83; 6HR PCP:  0.08;

$$

ARZ040-041-170700-
WEST CENTRAL ARKANSAS

CITY           SKY/WX    TMP DP  RH WIND       PRES   REMARKS
MENA           CLOUDY    82  82 100 S3        29.96F HX  97
MOUNT IDA      CLOUDY    82  75  79 VRB6      29.94F HX  89
6HR MIN TEMP:  80; 6HR MAX TEMP:  88;

$$

ARZ009-017-025-026-028-170700-
NORTHEAST ARKANSAS

CITY           SKY/WX    TMP DP  RH WIND       PRES   REMARKS
JONESBORO      CLEAR     79  78  97 S8        29.94F
6HR MIN TEMP:  79; 6HR MAX TEMP:  87;

NEWPORT        CLEAR     79  76  90 S14       29.94F
6HR MIN TEMP:  77; 6HR MAX TEMP:  86;

WALNUT RIDGE   CLEAR     79  73  83 S9        29.92F
6HR MIN TEMP:  79; 6HR MAX TEMP:  88;

BLYTHEVILLE    CLEAR     79  77  94 S9        29.96S
6HR MIN TEMP:  78; 6HR MAX TEMP:  86;

$$

ARZ022-023-033-042-044-170700-
CENTRAL ARKANSAS

CITY           SKY/WX    TMP DP  RH WIND       PRES   REMARKS
LITTLE ROCK    MOCLDY    77  75  93 S7        29.98R
6HR MIN TEMP:  77; 6HR MAX TEMP:  88;

N LITTLE ROCK    N/A     78  73  84 S6        29.98
6HR MIN TEMP:  79; 6HR MAX TEMP:  88;

JACKSONVILLE   CLEAR     79  75  88 S7        29.97S
6HR MIN TEMP:  79; 6HR MAX TEMP:  89;

CONWAY           N/A     81  77  89 S5        29.94S HX  88
SEARCY           N/A    N/A N/A N/A MISG        N/A
HOT SPRINGS    CLOUDY    81  76  84 S8        29.98S HX  87
6HR MIN TEMP:  81; 6HR MAX TEMP:  90;

RUSSELLVILLE   CLOUDY    79  76  90 CALM      29.93F
6HR MIN TEMP:  77; 6HR MAX TEMP:  88;

CLINTON        CLOUDY    75  75 100 CALM      29.95F
$$

ARZ036-170700-
EAST ARKANSAS

CITY           SKY/WX    TMP DP  RH WIND       PRES   REMARKS
WEST MEMPHIS   CLEAR     76  74  93 S8        29.99R
6HR MIN TEMP:  76; 6HR MAX TEMP:  86;

$$

ARZ050-053-066-070-073-170700-
SOUTHWEST ARKANSAS

CITY           SKY/WX    TMP DP  RH WIND       PRES   REMARKS
ARKADELPHIA    MOCLDY    78  76  93 CALM      29.98R
6HR MIN TEMP:  78; 6HR MAX TEMP:  89;

CAMDEN         CLOUDY    77  73  88 S3        29.98R
TEXARKANA      CLOUDY    80  78  94 S9        29.97R HX  88
6HR MIN TEMP:  80; 6HR MAX TEMP:  89;

EL DORADO      PTCLDY    77  76  96 S6        30.00R
6HR MIN TEMP:  77; 6HR MAX TEMP:  83;

DE QUEEN       CLOUDY    81  79  94 VRB6      29.93R HX  90
6HR MIN TEMP:  79; 6HR MAX TEMP:  89;

$$

ARZ056-057-069-170700-
SOUTHEAST ARKANSAS

CITY           SKY/WX    TMP DP  RH WIND       PRES   REMARKS
PINE BLUFF     CLEAR     77  74  90 S6        29.99R
6HR MIN TEMP:  77; 6HR MAX TEMP:  88;

MONTICELLO     CLEAR     77  74  90 S7        30.00R
6HR MIN TEMP:  77; 6HR MAX TEMP:  90;


$$






USA.gov is the U.S. government's official web portal to all federal, state and local government web resources and services.